Radiation Dose at Monitoring Post of Fukushima Daini Nuclear Power Station
Date,Time,MP-1(microSv/h),MP-2(microSv/h),MP-3(microSv/h),MP-4(microSv/h),MP-5(microSv/h),MP-6(microSv/h),MP-7(microSv/h),Wind Direction,Wind Velocity(m/s),Rain
2019/04/18,00:00,0.202,0.187,0.305,0.285,0.273,0.153,0.093,south,3.2,No
2019/04/18,00:10,0.202,0.186,0.305,0.285,0.275,0.152,0.093,south,3.5,No
2019/04/18,00:20,0.202,0.189,0.305,0.286,0.273,0.153,0.093,south-southwest,4.6,No
2019/04/18,00:30,0.201,0.187,0.305,0.286,0.275,0.153,0.093,south-southwest,4.2,No
2019/04/18,00:40,0.203,0.187,0.306,0.285,0.277,0.153,0.093,south-southwest,5.2,No
2019/04/18,00:50,0.201,0.187,0.305,0.287,0.275,0.153,0.094,south-southwest,5.7,No
2019/04/18,01:00,0.202,0.187,0.305,0.287,0.276,0.153,0.093,south-southwest,5.2,No
2019/04/18,01:10,0.203,0.187,0.305,0.285,0.274,0.152,0.093,south-southwest,4.5,No
2019/04/18,01:20,0.202,0.187,0.305,0.286,0.274,0.153,0.093,south-southwest,4.2,No
2019/04/18,01:30,0.203,0.187,0.304,0.285,0.275,0.153,0.093,south-southwest,4.8,No
2019/04/18,01:40,0.201,0.187,0.306,0.286,0.275,0.153,0.093,south-southwest,4.1,No
2019/04/18,01:50,0.201,0.187,0.305,0.285,0.275,0.153,0.092,south-southwest,5.4,No
2019/04/18,02:00,0.202,0.187,0.305,0.284,0.274,0.152,0.093,south-southwest,4.5,No
2019/04/18,02:10,0.201,0.188,0.305,0.286,0.276,0.152,0.093,south-southwest,4.8,No
2019/04/18,02:20,0.202,0.187,0.305,0.284,0.275,0.152,0.092,south-southwest,4.9,No
2019/04/18,02:30,0.202,0.187,0.306,0.285,0.275,0.152,0.092,south-southwest,4.6,No
2019/04/18,02:40,0.202,0.187,0.305,0.286,0.274,0.153,0.092,south-southwest,4.0,No
2019/04/18,02:50,0.202,0.187,0.305,0.284,0.274,0.153,0.093,south-southwest,4.2,No
2019/04/18,03:00,0.202,0.187,0.305,0.286,0.276,0.152,0.094,south-southwest,4.2,No
2019/04/18,03:10,0.201,0.187,0.305,0.285,0.273,0.152,0.093,south-southwest,3.7,No
2019/04/18,03:20,0.202,0.186,0.306,0.285,0.276,0.153,0.093,south-southwest,3.4,No
2019/04/18,03:30,0.202,0.188,0.305,0.286,0.274,0.153,0.093,south-southwest,3.3,No
2019/04/18,03:40,0.202,0.187,0.305,0.284,0.275,0.153,0.093,south-southwest,3.4,No
2019/04/18,03:50,0.201,0.186,0.307,0.285,0.275,0.153,0.093,south,3.2,No
2019/04/18,04:00,0.202,0.188,0.304,0.286,0.273,0.152,0.092,south,3.5,No
2019/04/18,04:10,0.203,0.188,0.306,0.285,0.276,0.153,0.094,south-southwest,2.2,No
2019/04/18,04:20,0.202,0.188,0.306,0.287,0.274,0.152,0.093,south-southwest,2.1,No
2019/04/18,04:30,0.203,0.188,0.305,0.286,0.275,0.154,0.093,south,1.8,No
2019/04/18,04:40,0.204,0.187,0.305,0.285,0.275,0.153,0.093,south-southwest,1.3,No
2019/04/18,04:50,0.203,0.188,0.306,0.288,0.275,0.153,0.093,south-southwest,1.1,No
2019/04/18,05:00,0.203,0.188,0.306,0.285,0.275,0.154,0.095,-,CALM,No
2019/04/18,05:10,0.202,0.189,0.306,0.285,0.275,0.153,0.094,south-southeast,0.9,No
2019/04/18,05:20,0.203,0.189,0.306,0.286,0.277,0.154,0.094,-,CALM,No
2019/04/18,05:30,0.203,0.189,0.306,0.285,0.277,0.154,0.094,northeast,0.7,No
2019/04/18,05:40,0.203,0.188,0.307,0.287,0.275,0.153,0.094,north,0.9,No
2019/04/18,05:50,0.203,0.189,0.306,0.287,0.276,0.153,0.095,north,1.5,No
2019/04/18,06:00,0.203,0.188,0.305,0.285,0.276,0.153,0.094,north,1.2,No
2019/04/18,06:10,0.202,0.187,0.308,0.287,0.278,0.152,0.093,north-northeast,0.9,No
2019/04/18,06:20,0.204,0.187,0.305,0.286,0.275,0.153,0.093,north,0.8,No
2019/04/18,06:30,0.202,0.189,0.308,0.286,0.275,0.154,0.094,north,1.6,No
2019/04/18,06:40,0.203,0.190,0.306,0.288,0.277,0.154,0.093,north-northwest,1.4,No
2019/04/18,06:50,0.202,0.188,0.307,0.286,0.274,0.153,0.095,north-northwest,1.6,No
2019/04/18,07:00,0.203,0.187,0.306,0.288,0.276,0.154,0.095,northwest,1.4,No
2019/04/18,07:10,0.203,0.187,0.304,0.285,0.274,0.152,0.094,west-northwest,1.4,No
2019/04/18,07:20,0.203,0.187,0.306,0.286,0.276,0.154,0.094,northwest,0.9,No
2019/04/18,07:30,0.202,0.189,0.304,0.286,0.274,0.153,0.094,west,1.1,No
2019/04/18,07:40,0.203,0.187,0.306,0.285,0.277,0.153,0.093,west,1.1,No
2019/04/18,07:50,0.202,0.188,0.305,0.284,0.273,0.154,0.095,-,CALM,No
2019/04/18,08:00,0.203,0.187,0.308,0.287,0.277,0.153,0.093,south-southeast,1.2,No
2019/04/18,08:10,0.202,0.188,0.304,0.284,0.273,0.154,0.094,southeast,1.5,No
2019/04/18,08:20,0.203,0.189,0.306,0.285,0.276,0.153,0.093,southeast,1.2,No
2019/04/18,08:30,0.202,0.188,0.305,0.285,0.275,0.153,0.094,east,1.5,No
2019/04/18,08:40,0.203,0.187,0.306,0.286,0.277,0.152,0.094,east,1.6,No
2019/04/18,08:50,0.201,0.187,0.305,0.285,0.274,0.153,0.094,southeast,0.8,No
2019/04/18,09:00,0.203,0.188,0.306,0.287,0.276,0.153,0.093,southeast,1.6,Yes
2019/04/18,09:10,0.202,0.187,0.305,0.285,0.274,0.153,0.093,south-southeast,2.2,No
2019/04/18,09:20,0.201,0.187,0.306,0.288,0.277,0.152,0.093,southeast,1.9,No
2019/04/18,09:30,0.203,0.187,0.307,0.285,0.273,0.153,0.093,east-southeast,1.4,No
2019/04/18,09:40,0.202,0.187,0.304,0.287,0.276,0.152,0.093,-,CALM,No
2019/04/18,09:50,0.203,0.188,0.307,0.284,0.274,0.153,0.093,-,CALM,No
2019/04/18,10:00,0.201,0.187,0.304,0.286,0.276,0.152,0.092,northeast,0.8,No
2019/04/18,10:10,0.202,0.187,0.307,0.284,0.273,0.152,0.093,east-northeast,3.4,No
2019/04/18,10:20,0.201,0.186,0.303,0.285,0.276,0.153,0.093,east-northeast,2.4,No
2019/04/18,10:30,0.202,0.186,0.306,0.283,0.273,0.153,0.093,east-southeast,2.6,No
2019/04/18,10:40,0.200,0.186,0.304,0.286,0.274,0.152,0.092,east-southeast,2.3,No
2019/04/18,10:50,0.202,0.187,0.305,0.283,0.275,0.153,0.093,east,1.5,No
2019/04/18,11:00,0.200,0.187,0.303,0.284,0.273,0.152,0.093,east,1.7,No
2019/04/18,11:10,0.202,0.187,0.306,0.285,0.276,0.152,0.093,east-southeast,1.0,No
2019/04/18,11:20,0.201,0.187,0.305,0.282,0.273,0.153,0.093,southeast,1.5,No
2019/04/18,11:30,0.202,0.188,0.304,0.286,0.272,0.151,0.092,southeast,2.3,No
2019/04/18,11:40,0.203,0.186,0.306,0.285,0.274,0.152,0.092,southeast,2.2,No
2019/04/18,11:50,0.201,0.188,0.302,0.281,0.274,0.153,0.092,southeast,3.3,No
2019/04/18,12:00,0.202,0.187,0.305,0.284,0.273,0.152,0.093,southeast,3.6,No
2019/04/18,12:10,0.201,0.188,0.306,0.285,0.276,0.153,0.092,south-southeast,2.4,No
2019/04/18,12:20,0.203,0.187,0.302,0.283,0.273,0.152,0.093,southeast,2.2,No
2019/04/18,12:30,0.201,0.188,0.303,0.284,0.272,0.151,0.093,southeast,2.8,No
2019/04/18,12:40,0.202,0.186,0.307,0.286,0.271,0.153,0.092,south-southeast,3.6,No
2019/04/18,12:50,0.203,0.187,0.304,0.282,0.274,0.151,0.093,south-southeast,4.0,No
2019/04/18,13:00,0.201,0.186,0.302,0.286,0.273,0.152,0.092,southeast,2.6,No
2019/04/18,13:10,0.202,0.187,0.304,0.286,0.274,0.152,0.093,southeast,2.9,No
2019/04/18,13:20,0.201,0.188,0.306,0.283,0.275,0.151,0.093,south,3.7,No
2019/04/18,13:30,0.200,0.186,0.304,0.284,0.273,0.153,0.092,south-southeast,4.6,No
2019/04/18,13:40,0.203,0.187,0.301,0.286,0.271,0.152,0.092,south-southeast,4.8,No
2019/04/18,13:50,0.202,0.186,0.304,0.284,0.276,0.152,0.093,south-southeast,4.2,No
2019/04/18,14:00,0.200,0.186,0.306,0.282,0.275,0.154,0.092,south-southeast,3.9,No
2019/04/18,14:10,0.201,0.188,0.304,0.286,0.273,0.152,0.093,south-southeast,4.0,No
2019/04/18,14:20,0.203,0.186,0.302,0.285,0.270,0.152,0.092,south-southeast,5.2,No
2019/04/18,14:30,0.202,0.186,0.301,0.282,0.275,0.153,0.094,south,5.3,No
2019/04/18,14:40,0.201,0.188,0.307,0.285,0.275,0.153,0.093,south-southeast,4.1,No
2019/04/18,14:50,0.201,0.187,0.308,0.285,0.274,0.152,0.092,south,5.7,No
2019/04/18,15:00,0.203,0.186,0.305,0.285,0.272,0.152,0.093,south,5.1,No
2019/04/18,15:10,0.202,0.187,0.302,0.286,0.271,0.153,0.092,south,4.6,No
2019/04/18,15:20,0.199,0.186,0.305,0.285,0.275,0.152,0.092,south,5.7,No
2019/04/18,15:30,0.199,0.187,0.305,0.286,0.277,0.153,0.093,south-southeast,4.8,No
2019/04/18,15:40,0.203,0.188,0.303,0.286,0.273,0.152,0.093,south-southeast,6.7,No
2019/04/18,15:50,0.202,0.187,0.307,0.285,0.271,0.152,0.093,south-southeast,7.3,No
2019/04/18,16:00,0.201,0.188,0.306,0.286,0.274,0.152,0.092,south-southeast,7.3,No
2019/04/18,16:10,0.202,0.188,0.306,0.286,0.276,0.153,0.094,south-southeast,8.4,No
2019/04/18,16:20,0.202,0.188,0.305,0.286,0.273,0.152,0.092,south,7.6,No
2019/04/18,16:30,0.203,0.188,0.308,0.286,0.273,0.153,0.093,south-southeast,8.2,No
2019/04/18,16:40,0.203,0.187,0.306,0.285,0.276,0.152,0.093,south-southeast,9.0,No
2019/04/18,16:50,0.202,0.189,0.308,0.286,0.273,0.153,0.093,south-southeast,8.6,No
2019/04/18,17:00,0.203,0.187,0.306,0.286,0.277,0.152,0.093,south,9.3,No
2019/04/18,17:10,0.204,0.189,0.308,0.286,0.277,0.152,0.093,south-southeast,9.5,No
2019/04/18,17:20,0.202,0.187,0.306,0.285,0.277,0.152,0.093,south,9.5,No
2019/04/18,17:30,0.202,0.189,0.307,0.287,0.276,0.154,0.093,south,10.1,No
2019/04/18,17:40,0.202,0.188,0.306,0.286,0.275,0.153,0.092,south-southeast,11.3,No
2019/04/18,17:50,0.203,0.187,0.307,0.285,0.274,0.153,0.093,south-southeast,10.4,No
2019/04/18,18:00,0.201,0.188,0.307,0.288,0.276,0.152,0.093,south,11.0,No
2019/04/18,18:10,0.203,0.187,0.305,0.285,0.275,0.153,0.092,south-southeast,11.1,No
2019/04/18,18:20,0.203,0.186,0.308,0.286,0.276,0.153,0.093,south,9.8,No
2019/04/18,18:30,0.203,0.188,0.305,0.286,0.275,0.153,0.093,south,9.3,No
2019/04/18,18:40,0.202,0.187,0.307,0.286,0.275,0.153,0.093,south,8.4,No
2019/04/18,18:50,0.202,0.188,0.306,0.286,0.277,0.153,0.093,south,8.2,No
2019/04/18,19:00,0.202,0.188,0.306,0.286,0.273,0.153,0.092,south,7.4,No
2019/04/18,19:10,0.201,0.188,0.307,0.287,0.276,0.153,0.093,south,8.1,No
2019/04/18,19:20,0.204,0.188,0.306,0.286,0.274,0.153,0.093,south,7.8,No
2019/04/18,19:30,0.203,0.187,0.307,0.287,0.277,0.153,0.092,south,8.4,No
2019/04/18,19:40,0.202,0.189,0.306,0.287,0.276,0.152,0.093,south,8.6,No
2019/04/18,19:50,0.202,0.188,0.305,0.286,0.275,0.153,0.093,south-southwest,9.2,No
2019/04/18,20:00,0.201,0.187,0.307,0.287,0.276,0.152,0.093,south-southwest,9.6,No
2019/04/18,20:10,0.203,0.188,0.305,0.285,0.274,0.152,0.093,south-southwest,9.5,No
2019/04/18,20:20,0.201,0.187,0.308,0.288,0.275,0.153,0.094,south-southwest,8.1,No
2019/04/18,20:30,0.203,0.188,0.306,0.285,0.273,0.152,0.093,south-southwest,8.9,No
2019/04/18,20:40,0.202,0.188,0.308,0.285,0.275,0.153,0.092,south-southwest,8.4,No
2019/04/18,20:50,0.202,0.187,0.306,0.287,0.274,0.152,0.093,south-southwest,8.2,No
2019/04/18,21:00,0.202,0.186,0.306,0.286,0.274,0.153,0.092,south-southwest,7.6,No
2019/04/18,21:10,0.202,0.186,0.307,0.286,0.275,0.153,0.093,south-southwest,7.9,No
2019/04/18,21:20,0.203,0.188,0.306,0.285,0.274,0.154,0.093,south-southwest,9.8,No
2019/04/18,21:30,0.200,0.188,0.306,0.287,0.275,0.153,0.092,south-southwest,8.5,No
2019/04/18,21:40,0.203,0.187,0.307,0.285,0.273,0.153,0.093,south-southwest,9.0,No
2019/04/18,21:50,0.203,0.188,0.306,0.285,0.276,0.152,0.092,south-southwest,8.4,No
2019/04/18,22:00,0.202,0.188,0.306,0.286,0.273,0.153,0.093,south,7.6,No
2019/04/18,22:10,0.202,0.187,0.305,0.286,0.276,0.153,0.093,south,7.5,No
2019/04/18,22:20,0.203,0.188,0.306,0.287,0.274,0.153,0.093,south,7.6,No
2019/04/18,22:30,0.202,0.187,0.305,0.285,0.275,0.152,0.093,south,8.1,No
2019/04/18,22:40,0.202,0.188,0.307,0.287,0.276,0.152,0.093,south,8.1,No
2019/04/18,22:50,0.203,0.187,0.306,0.285,0.274,0.153,0.093,south,8.1,No
2019/04/18,23:00,0.201,0.187,0.307,0.287,0.276,0.153,0.093,south,7.4,No
2019/04/18,23:10,0.204,0.188,0.305,0.285,0.274,0.154,0.092,south,7.7,No
2019/04/18,23:20,0.203,0.187,0.306,0.287,0.275,0.153,0.093,south,6.3,No
2019/04/18,23:30,0.203,0.188,0.308,0.287,0.274,0.153,0.092,south,5.9,No
2019/04/18,23:40,0.203,0.188,0.306,0.286,0.275,0.153,0.093,south-southwest,5.9,No
2019/04/18,23:50,0.202,0.187,0.307,0.287,0.274,0.152,0.093,south-southwest,5.9,No
